[[{"header":{"parameterUnit":"m.s-1","parameterCategory":1,"la1":30.2991,"la2":30.254,"lo1":-89.0895,"lo2":-89.0444,"dy":0.0017,"dx":0.0017,"nx":28,"ny":28,"refTime":"2023-10-21T09:00:00:Z","depth":0,"parameterNumber":2,"parameterNumberName":"U-component_of_WINDS"},"data":[0,0,0,0,0,0,0,0,0,0,0,0,0,0,0,0,0,0,0,0,0,0,0,0,0,0,0,0,0,0,0,0,0,0,0,0,0,0,0,0,0,0,0,0,0,0,0,0,0,0,0,0,0,0,0,0,0,0,3.0226,3.0227,0,3.0246,3.0246,3.0247,3.0178,3.0176,3.0174,3.0172,3.0196,3.0199,3.0201,0,0,0,0,0,0,0,0,0,0,0,0,0,3.0134,3.0136,3.0226,3.0227,3.0227,3.0246,3.0246,3.0247,3.0178,3.0176,3.0173,3.0171,3.0195,3.0198,3.0201,0,0,0,0,0,0,0,0,0,0,0,0,0,3.0166,3.0137,3.0226,3.0195,3.0192,3.0246,3.0246,3.0247,3.0179,3.0176,3.0173,3.017,3.0194,3.0198,3.0202,3.0288,0,0,3.0214,3.0215,0,0,0,0,0,0,0,0,3.0164,3.017,3.0199,3.0197,3.0194,3.0206,3.0223,3.0261,3.018,3.0184,3.0172,3.0168,3.0202,3.0205,3.0216,3.0289,3.029,3.0214,3.0216,3.0218,3.0219,0,0,0,0,0,0,0,3.0162,3.0168,3.0234,3.02,3.0197,3.0181,3.0182,3.023,3.0211,3.0183,3.0178,3.0182,3.02,3.0212,3.0216,3.0291,3.0214,3.0217,3.022,3.0221,3.0437,3.044,0,0,0,0,0,0,3.0163,3.0167,3.0234,3.0235,3.0171,3.0186,3.0187,3.0206,3.021,3.0207,3.0184,3.0178,3.0207,3.0212,3.0217,3.0318,3.0218,3.0222,3.0224,3.0433,3.0437,3.0441,0,0,0,0,0,0,3.0162,3.017,3.0233,3.02,3.0206,3.019,3.0212,3.0208,3.0219,3.021,3.0207,3.02,3.0205,3.0211,3.0271,3.0318,3.0223,3.0227,3.0429,3.0435,3.0439,3.0521,0,0,0,0,0,0,3.0159,3.017,3.0201,3.0201,3.0208,3.0285,3.0215,3.021,3.0226,3.0218,3.0224,3.0222,3.0203,3.0265,3.0275,3.0321,3.023,3.0425,3.0432,3.0438,3.0514,3.0528,3.0541,0,0,0,0,0,3.0156,3.0224,3.0203,3.0212,3.0247,3.0288,3.0293,3.0268,3.023,3.0262,3.0256,3.0222,3.0311,3.0272,3.0282,3.0331,3.0422,3.043,3.0437,3.0508,3.0526,3.054,0,0,0,0,0,0,3.0232,3.0224,3.02,3.027,3.028,3.0276,3.0316,3.0288,3.031,3.0302,3.0273,3.0275,3.034,3.0341,3.0297,3.0415,3.036,3.037,3.0411,3.0427,3.044,3.0438,3.0233,0,0,0,0,0,3.0256,3.0289,3.0281,3.0343,3.0349,3.0332,3.0349,3.033,3.034,3.0344,3.0343,3.0355,3.0386,3.0407,3.0435,3.0515,3.0515,3.0553,3.0567,3.0577,3.0586,3.0629,3.0646,3.0466,3.0466,3.0466,0,0,3.0308,3.0307,3.033,3.0358,3.0364,3.04,3.0336,3.0377,3.0403,3.0351,3.0406,3.0406,3.0418,3.0488,3.0519,3.0492,3.0636,3.0587,3.0596,3.0599,3.0639,3.0656,3.0671,3.0471,3.047,3.047,0,0,3.0419,3.0422,3.0474,3.0481,3.049,3.0479,3.0492,3.0493,3.049,3.0545,3.0507,3.0539,3.0593,3.0603,3.0615,3.0733,3.0702,3.0743,3.0812,3.0854,3.0868,3.0881,3.0923,3.0938,3.0752,3.0752,3.0752,0,3.0482,3.0533,3.0505,3.0548,3.0562,3.0515,3.0569,3.0578,3.0596,3.0608,3.0577,3.0644,3.0648,3.072,3.0749,3.0761,3.0775,3.0742,3.0868,3.088,3.0892,3.0931,3.0947,3.0757,3.0757,3.0756,3.0756,0,3.061,3.0646,3.0687,3.0705,3.0724,3.0773,3.0753,3.0776,3.0756,3.0748,3.0806,3.081,3.0839,3.0855,3.0835,3.0925,3.0907,3.0873,3.0817,3.0914,3.0951,3.0966,3.0764,3.0762,3.0761,3.076,0,0,3.0768,3.077,3.0786,3.0794,3.0801,3.0829,3.0877,3.0903,3.0924,3.0939,3.0978,3.1025,3.0994,3.1008,3.099,3.1027,3.112,3.0988,3.0988,3.1012,3.1219,3.1244,3.1262,3.11,3.1103,3.1105,3.1218,0,3.0877,3.0955,3.0933,3.1012,3.1046,3.1003,3.1044,3.1054,3.1049,3.1078,3.1073,3.1106,3.1062,3.107,3.1105,3.1101,3.1161,3.1093,3.1137,3.1139,3.1134,3.1281,3.1308,3.1414,3.1232,3.1235,3.1236,0,3.1014,3.1034,3.1116,3.1119,3.1132,3.1169,3.1192,3.122,3.1232,3.1225,3.1242,3.1217,3.1265,3.121,3.1276,3.123,3.1247,3.1249,3.1252,3.1255,3.1193,3.1288,3.1447,3.1463,3.1259,3.1257,3.1255,0,3.1121,3.1168,3.1224,3.1232,3.1236,3.1264,3.1267,3.1275,3.1293,3.1314,3.1325,3.1352,3.1367,3.1389,3.1373,3.1334,3.1442,3.1385,3.1439,3.1439,3.1462,3.1461,3.1627,3.1475,3.1475,3.1475,3.1474,0,3.1245,3.1297,3.1271,3.1306,3.1363,3.1338,3.1396,3.1395,3.1403,3.1437,3.1403,3.1436,3.1412,3.1444,3.1432,3.1489,3.1496,3.1493,3.1489,3.1496,3.1496,3.1506,3.1498,3.1479,3.1478,3.1477,3.1476,0,3.1373,3.1358,3.1416,3.1415,3.1417,3.1459,3.146,3.1492,3.1485,3.1529,3.1538,3.1527,3.1562,3.1548,3.1587,3.1578,3.1651,3.1638,3.1647,3.1643,3.1697,3.1692,3.1874,3.1897,3.1732,3.1733,3.1734,0,3.1453,3.1491,3.1495,3.1515,3.1521,3.1553,3.1571,3.1548,3.1569,3.1585,3.1616,3.1649,3.1673,3.1733,3.1729,3.1759,3.1746,3.1808,3.175,3.1756,3.1746,3.1744,3.1748,3.1819,3.1821,3.1823,3.1824,0,3.1595,3.1586,3.1612,3.1636,3.1658,3.1677,3.1692,3.1711,3.1689,3.1714,3.1749,3.1769,3.1808,3.1841,3.1868,3.1873,3.1846,3.1842,3.1856,3.1863,3.1866,3.1865,3.1678,3.1838,3.1836,3.1835,3.1835,3.1834,3.1701,3.1734,3.1742,3.1773,3.1782,3.1797,3.1828,3.1824,3.1853,3.1882,3.1867,3.1909,3.1921,3.1953,3.1963,3.1996,3.1972,3.1992,3.1997,3.2002,3.2009,3.1862,3.2001,3.2001,3.2,3.2,3.2,0,3.1842,3.1845,3.1873,3.1895,3.192,3.1891,3.1908,3.193,3.1967,3.198,3.2005,3.2047,3.2079,3.2078,3.2109,3.2136,3.2124,3.2144,3.2142,3.2144,3.2029,3.2014,3.2153,3.2153,3.2153,3.2153,3.2153,3.2153,3.1917,3.1971,3.1964,3.2023,3.2026,3.2065,3.2077,3.2092,3.2102,3.2149,3.2175,3.2174,3.2182,3.2213,3.2242,3.2242,3.2254,3.228,3.2274,3.2167,3.2152,3.2137,3.2122,3.2283,3.2283,3.2386,3.2387,3.2387]},{"header":{"parameterUnit":"m.s-1","parameterCategory":1,"la1":30.2991,"la2":30.254,"lo1":-89.0895,"lo2":-89.0444,"dy":0.0017,"dx":0.0017,"nx":28,"ny":28,"refTime":"2023-10-21T09:00:00:Z","depth":0,"parameterNumber":3,"parameterNumberName":"V-component_of_WINDS"},"data":[0,0,0,0,0,0,0,0,0,0,0,0,0,0,0,0,0,0,0,0,0,0,0,0,0,0,0,0,0,0,0,0,0,0,0,0,0,0,0,0,0,0,0,0,0,0,0,0,0,0,0,0,0,0,0,0,0,0,1.509,1.509,0,1.5058,1.5058,1.5057,1.4998,1.4997,1.4996,1.4995,1.4963,1.4964,1.4964,0,0,0,0,0,0,0,0,0,0,0,0,0,1.5102,1.5102,1.509,1.509,1.5089,1.5058,1.5058,1.5057,1.4998,1.4997,1.4996,1.4994,1.4963,1.4964,1.4964,0,0,0,0,0,0,0,0,0,0,0,0,0,1.5086,1.5102,1.509,1.5056,1.5053,1.5058,1.5058,1.5057,1.4999,1.4997,1.4995,1.4994,1.4963,1.4964,1.4964,1.5,0,0,1.4965,1.4965,0,0,0,0,0,0,0,0,1.5087,1.5086,1.5062,1.5059,1.5055,1.503,1.505,1.5038,1.4999,1.5019,1.4995,1.4993,1.4987,1.4985,1.4983,1.4999,1.4997,1.4965,1.4965,1.4965,1.4965,0,0,0,0,0,0,0,1.5089,1.5087,1.5078,1.5061,1.5057,1.5043,1.5039,1.5048,1.5013,1.5018,1.5013,1.501,1.4985,1.4983,1.4982,1.4997,1.4965,1.4965,1.4966,1.4966,1.5041,1.5042,0,0,0,0,0,0,1.5094,1.5088,1.5079,1.5077,1.5067,1.5044,1.504,1.504,1.5013,1.5007,1.5012,1.5007,1.4983,1.4982,1.4981,1.5022,1.4965,1.4966,1.4966,1.5039,1.5041,1.5043,0,0,0,0,0,0,1.5095,1.5094,1.508,1.5081,1.5078,1.5046,1.5047,1.504,1.5038,1.5008,1.5002,1.5016,1.4982,1.498,1.4996,1.502,1.4966,1.4966,1.5037,1.5039,1.5042,1.5104,0,0,0,0,0,0,1.5096,1.5095,1.5108,1.5082,1.5078,1.5095,1.5048,1.5041,1.5039,1.5033,1.5011,1.5006,1.498,1.4996,1.4996,1.5019,1.4966,1.5034,1.5038,1.5041,1.5099,1.5108,1.5115,0,0,0,0,0,1.5096,1.5127,1.5109,1.5108,1.5094,1.5097,1.5095,1.5065,1.5041,1.5054,1.5035,1.5006,1.5017,1.4998,1.4998,1.5021,1.5033,1.5037,1.5041,1.5096,1.5106,1.5115,0,0,0,0,0,0,1.5157,1.5123,1.5102,1.5125,1.5114,1.5087,1.5102,1.5077,1.5073,1.5068,1.5031,1.5027,1.5047,1.5035,1.5015,1.5055,1.502,1.5024,1.5062,1.5072,1.508,1.5083,1.4967,0,0,0,0,0,1.5173,1.5177,1.5147,1.5171,1.5166,1.5135,1.5135,1.5113,1.51,1.5096,1.5077,1.5067,1.5067,1.5069,1.5068,1.5097,1.5092,1.5113,1.5121,1.5128,1.5133,1.5147,1.5157,1.5056,1.5056,1.5056,0,0,1.5206,1.5188,1.5193,1.5182,1.5171,1.5177,1.5132,1.514,1.5144,1.5097,1.511,1.5097,1.5082,1.5105,1.5114,1.5096,1.5159,1.5133,1.5139,1.514,1.5152,1.5162,1.5171,1.5059,1.5058,1.5058,0,0,1.527,1.5256,1.5274,1.5264,1.5247,1.5226,1.5231,1.5207,1.5196,1.5209,1.5174,1.5178,1.518,1.5171,1.5167,1.5227,1.5201,1.5228,1.5271,1.5286,1.5294,1.53,1.5322,1.5331,1.5232,1.5232,1.5232,0,1.5314,1.532,1.5287,1.5297,1.5294,1.5251,1.5269,1.526,1.5245,1.5244,1.5223,1.5225,1.5212,1.5232,1.5247,1.5244,1.5249,1.5231,1.5295,1.5302,1.5307,1.5328,1.5336,1.5236,1.5235,1.5235,1.5235,0,1.5375,1.5381,1.5397,1.5383,1.5381,1.5395,1.5364,1.5366,1.5344,1.5326,1.534,1.5323,1.5318,1.5321,1.5299,1.5338,1.5327,1.5301,1.5266,1.5321,1.534,1.5347,1.5241,1.5239,1.5238,1.5238,0,0,1.5477,1.5443,1.545,1.5443,1.5421,1.5425,1.5437,1.5432,1.5435,1.5425,1.5435,1.5438,1.5414,1.5409,1.5386,1.5399,1.5449,1.5372,1.5371,1.5387,1.549,1.551,1.552,1.543,1.5432,1.5433,1.5492,0,1.5536,1.5555,1.5526,1.5552,1.5556,1.5515,1.5526,1.5514,1.5498,1.5499,1.5481,1.5483,1.5451,1.5448,1.5459,1.544,1.5469,1.5435,1.544,1.5441,1.5446,1.553,1.5551,1.5607,1.5499,1.55,1.5501,0,1.5609,1.5602,1.5629,1.5605,1.5606,1.5617,1.5609,1.5611,1.5597,1.5584,1.5579,1.5551,1.5562,1.5528,1.5542,1.552,1.552,1.5511,1.5513,1.5513,1.5475,1.5533,1.5625,1.5634,1.5512,1.5511,1.551,0,1.5681,1.5679,1.5694,1.569,1.5663,1.5671,1.566,1.5644,1.5643,1.5636,1.5635,1.563,1.5628,1.5625,1.5598,1.5575,1.5616,1.5579,1.5606,1.5607,1.5617,1.5617,1.5712,1.5616,1.5616,1.5616,1.5616,0,1.5751,1.5769,1.5727,1.5736,1.5755,1.5721,1.5741,1.5726,1.5712,1.5719,1.5683,1.569,1.5652,1.5655,1.5634,1.565,1.5649,1.5639,1.5633,1.5642,1.5644,1.5643,1.5638,1.5618,1.5618,1.5617,1.5617,0,1.5835,1.5808,1.5822,1.5795,1.5789,1.5804,1.5781,1.5789,1.577,1.5779,1.5779,1.5748,1.575,1.5722,1.5718,1.5704,1.573,1.5716,1.5734,1.5731,1.576,1.5758,1.5857,1.5869,1.5765,1.5766,1.5767,0,1.5882,1.5895,1.587,1.5871,1.5862,1.5865,1.5863,1.583,1.5829,1.5814,1.5824,1.5823,1.582,1.5825,1.5803,1.58,1.5787,1.5822,1.5786,1.5795,1.5788,1.5788,1.5789,1.583,1.5831,1.5832,1.5833,0,1.5969,1.5954,1.5953,1.5947,1.5946,1.594,1.5931,1.5935,1.5898,1.59,1.5901,1.5899,1.5895,1.5894,1.5887,1.5876,1.5849,1.5844,1.585,1.5861,1.5871,1.5866,1.5756,1.5842,1.5841,1.584,1.584,1.584,1.6036,1.6046,1.6029,1.6029,1.6019,1.6012,1.6019,1.6,1.6,1.5994,1.5974,1.5978,1.5964,1.5951,1.5943,1.5946,1.5929,1.5938,1.594,1.5943,1.5949,1.587,1.5945,1.5944,1.5944,1.5944,1.5944,0,1.6121,1.6109,1.6109,1.6098,1.6098,1.6071,1.6061,1.6063,1.6067,1.6056,1.6053,1.6055,1.6054,1.6032,1.6028,1.6035,1.6023,1.6035,1.6035,1.6033,1.5964,1.596,1.6046,1.6046,1.6046,1.6046,1.6046,1.6046,1.6166,1.6181,1.6165,1.6174,1.6161,1.6165,1.6162,1.6155,1.6146,1.6149,1.6148,1.6133,1.6117,1.6112,1.611,1.6104,1.6105,1.6122,1.6111,1.6048,1.6038,1.6029,1.6024,1.6122,1.6122,1.618,1.6181,1.6181]}]]